Regional Weather Roundup
Issued by NWS

Home | Current Version | Previous Version | Graphics & Text | Print | Product List | Glossary On
Versions: 1 2 3 4 5 6 7 8 9 10 11 12 13 14 15 16 17 18 19 20 21 22 23 24 25 26 27 28 29 30 31 32 33 34 35 36 37 38 39 40 41 42 43 44 45 46 47 48 49 50
233
ASUS45 KTFX 190210
RWRMT
MONTANA REGIONAL WEATHER ROUNDUP
NATIONAL WEATHER SERVICE GREAT FALLS MT
700 PM MST SUN FEB 18 2018

NOTE: "FAIR" INDICATES FEW OR NO CLOUDS BELOW 12000 FEET WITH NO
SIGNIFICANT WEATHER AND/OR OBSTRUCTIONS TO VISIBILITY.

MTZ001>007-043-190300-
WEST OF THE DIVIDE

CITY           SKY/WX    TMP DP  RH WIND       PRES   REMARKS
KALISPELL      CLOUDY     9  -3  58 NE21      29.94R WCI -11
MISSOULA       CLOUDY    12   0  58 E15       29.84R WCI  -4
BUTTE          LGT SNOW   2  -5  72 VRB6      29.67S WCI  -9
MULLAN PASS    LGT SNOW   1  -2  87 VRB6      29.54R FOG     WCI -10
ANACONDA         N/A      1  -6  71 MISG      29.74R
DEER LODGE       N/A      1  -8  66 MISG      29.80R
HAMILTON         N/A     12   7  79 MISG        N/A
RONAN            N/A     14  10  85 CALM      29.86R
$$

MTZ008-052>055-190300-
SOUTHWEST MONTANA

CITY           SKY/WX    TMP DP  RH WIND       PRES   REMARKS
BOZEMAN        CLOUDY     8   2  76 SE12      29.77R HAZE    WCI  -7
DILLON         LGT SNOW  -1  -1 100 N23G30    29.63F FOG     WCI -25
ENNIS          CLOUDY     1  -2  85 N10       29.70R WCI -14
W YELLOWSTONE  LGT SNOW   9   7  92 VRB5      29.46R
THREE FORKS      N/A      8   2  76 N8        29.80R WCI  -4
$$

MTZ009-010-012-014-046-048-049-054-190300-
EAST SLOPES AND CENTRAL MONTANA

CITY           SKY/WX    TMP DP  RH WIND       PRES   REMARKS
CUT BANK       FAIR     -10 -13  86 NW13      30.00R WCI -30
GREAT FALLS    LGT SNOW   0  -5  79 NE9       30.01R WCI -15
MALMSTROM AFB  LGT SNOW   0  -2  89 N10       30.03R WCI -16
HELENA         CLOUDY     5  -2  72 N15       29.90R WCI -13
BOWMANS CRNR   LGT SNOW  -4  -8  85 N15       29.92R WCI -25
FAIRFIELD      FLURRIES  -3  -8  78 N10       29.99R WCI -20
POWER          LGT SNOW  -2  -6  83 N14       30.00R FOG     WCI -21
RAYNESFORD     FLURRIES  -1  -5  82 W8        29.96R WCI -15
ULM            LGT SNOW   1  -3  83 NE8       30.01R WCI -13
WHITE SULPHUR    N/A      0  -4  85 NW20      29.77S HAZE    WCI -22
$$

MTZ011-013-016-021-045-047-050-051-190300-
NORTH CENTRAL MONTANA

CITY           SKY/WX    TMP DP  RH WIND       PRES   REMARKS
HAVRE          FAIR      -3  -7  82 NW5       30.11R
LEWISTOWN      LGT SNOW  -1  -3  91 NW7       29.93R FOG     WCI -14
N BAR RANCH    LGT SNOW  -2  -9  71 N6G12     29.92R WCI -14
CHINOOK          N/A      0  -4  85 CALM      30.13R
GEYSER         FLURRIES  -2  -7  78 NE13      29.95R WCI -20
STANFORD       FLURRIES  -3  -6  87 NW9       29.92R WCI -19
WINIFRED       FLURRIES   0  -4  86 E8        29.98R WCI -15
$$

MTZ017>020-022>027-061-062-190300-
NORTHEAST MONTANA

CITY           SKY/WX    TMP DP  RH WIND       PRES   REMARKS
GLASGOW        CLOUDY     2  -3  80 NW5       30.07R
GLENDIVE       FLURRIES   4   0  83 N12       30.05R WCI -12
JORDAN           N/A      3  -2  79 N6        30.06R WCI  -8
MALTA          CLOUDY     1  -8  66 NW13      30.10R WCI -16
SIDNEY         FAIR       2  -4  76 NW9       30.11R WCI -13
WOLF POINT     FAIR      -2  -9  72 NW6       30.11R WCI -14
PLENTYWOOD       N/A      1  -4  78 CALM      30.07R
POPLAR           N/A      1  -6  71 N3        30.11R
$$

MTZ028>42-056>058-190300-
SOUTHCENTRAL AND SOUTHEAST MONTANA

CITY           SKY/WX    TMP DP  RH WIND       PRES   REMARKS
BAKER          LGT SNOW   6   2  83 N13       29.97R VSB 1   WCI -10
BILLINGS       CLOUDY     3  -1  83 NE9       29.97R WCI -12
LIVINGSTON     LGT SNOW   3  -1  83 E17G24    29.80R FOG     WCI -17
MILES CITY     LGT SNOW   5   1  83 N10       30.04R FOG     WCI -10
BIG TIMBER     CLOUDY     1  -2  85 NE7       29.89R FOG     WCI -11
FORSYTH          N/A      5   1  85 NW5       30.05R
HARLOWTON      LGT SNOW   0  -4  81 NE20      29.88R WCI -22
LAUREL           N/A      3   0  85 NE9       29.99R WCI -11
$$

REGIONAL REPORTS...DAKOTAS

CITY           SKY/WX    TMP DP  RH WIND       PRES   REMARKS
WILLISTON      FAIR       0  -5  79 N8        30.08R WCI -14
MINOT          FAIR       5  -5  63 N10       30.06R WCI -10
DICKINSON      CLOUDY     5  -2  72 N12       29.97R WCI -11
BEACH          CLOUDY     5   0  78 N12       30.04R WCI -11
CROSBY         FAIR      -4 -11  71 NW6       30.10R WCI -16
TIOGA          FAIR       0  -8  71 N12       30.05R WCI -18
BISMARCK       MOCLDY    10   2  69 N12       30.04R WCI  -5
GRAND FORKS    CLOUDY     9   3  77 N18       30.03R WCI -10
FARGO          FAIR      11   7  84 N23       29.94R WCI  -9
BUFFALO SD       N/A      8   2  76 N15       29.86R WCI  -9
RAPID CITY     SNOW       7   4  87 N18       29.86F VSB 1/2 WCI -12
$$

REGIONAL REPORTS...WYOMING/IDAHO/WASHINGTON

CITY           SKY/WX    TMP DP  RH WIND       PRES   REMARKS
GILLETTE       LGT SNOW   4  -1  80 N16       29.80R WCI -15
SHERIDAN       LGT SNOW   5   1  83 NW12      29.91R FOG     WCI -11
BUFFALO WY     LGT SNOW   3  -2  79 N15       29.80R WCI -16
CODY           LGT SNOW   2  -4  76 N15       29.76S WCI -17
YELLOWSTONE LA   N/A     16  13  88 CALM      29.43S
IDAHO FALLS    FAIR      30  24  78 S22G29    29.49R WCI  17
SALMON         CLOUDY    26  18  71 CALM      29.57R
BOISE          FAIR      30  25  81 NE3       29.62S
SPOKANE        MOCLDY    19   9  65 NE15      29.76R WCI   5
$$

REGIONAL REPORTS...ALBERTA

CITY           SKY/WX    TMP DP  RH WIND       PRES   REMARKS
CALGARY        CLOUDY     1  -6  71 N5        30.03R
CARDSTON         N/A     -4  -8  84 W7          N/A  WCI -18
EDMONTON       PTCLDY    -4 -15  59 SW3       30.10R
FORT MCMURRAY  MOCLDY    -6 -15  65 SW7       30.10F WCI -20
HIGH LEVEL     CLOUDY    12   0  57 VRB2      30.05F
LETHBRIDGE     MOCLDY    -6 -11  77 W6        30.09R WCI -18
LLOYDMINSTER   CLEAR     -4 -13  65 NW7       30.06R WCI -18
MEDICINE HAT   MOCLDY    -2  -8  78 SW3       30.14R
MILK RIVER       N/A     -4  -8  84 W5          N/A
ONEFOUR          N/A     -6  -8  92 NW7         N/A  WCI -20
PEACE RIVER    MOCLDY     9  -6  52 W6        30.10S WCI  -1
PINCHER CREEK  CLOUDY    -6 -13  71 S8        30.00R WCI -21
$$

REGIONAL REPORTS...SASKATCHEWAN

CITY           SKY/WX    TMP DP  RH WIND       PRES   REMARKS
CORONACH         N/A     -8 -13  77 NW2         N/A
CYPRESS HILLS    N/A     -6 -11  77 NW6         N/A  WCI -18
ESTEVAN        MOCLDY    -8 -15  71 NW7       30.08S WCI -22
MOOSE JAW        N/A     -4  -9  77 W8          N/A  WCI -19
PRINCE ALBERT  PTCLDY    -8 -15  71 E2        30.15R
REGINA         MOCLDY     5  -2  72 NW15      30.07R WCI -13
ROCKGLEN         N/A      1  -2  85 NW12        N/A  WCI -15
SASKATOON      PTCLDY    -6 -11  77 NW9       30.13R WCI -22
SWIFT CURRENT  PTCLDY    -6  -9  84 W9        30.03R WCI -22
VAL MARIE        N/A     -4 -11  71 N12         N/A  WCI -22
$$




USA.gov is the U.S. government's official web portal to all federal, state and local government web resources and services.